{"data":{"norad_id":66107,"intl_designator":"2025-236X","name":"STARLINK-35593","alt_names":[],"object_type":"PAYLOAD","status":"ACTIVE","operator":null,"country":"US","launch_date":"2025-10-19","launch_site_code":"AFWTR","launch_vehicle":null,"mission":null,"orbit_class":"UNKNOWN","rcs_meters":null,"size_class":null,"mass_kg":null,"dimensions":null,"purposes":["comms"],"wikipedia_slug":null,"has_3d_model":false,"image_url":null,"decayed_at":null,"tle_current":{"epoch":"2026-09-20T14:18:03.447072Z","epoch_age_seconds":92163,"freshness":"FRESH","line1":"1 66107U 25236X   26263.59587323  .00017929  00000+0  54045-3 0  9997","line2":"2 66107  53.1571 275.1444 0001100  80.0354 280.0773 15.34402876 52838","mean_motion":15.34402876,"eccentricity":0.00011,"inclination_deg":53.1571,"raan_deg":275.1444,"arg_perigee_deg":80.0354,"mean_anomaly_deg":280.0773,"bstar":0.00054045,"rev_number":5283,"period_min":93.847582178281,"perigee_km":461.94220065623,"apogee_km":463.4471836285,"semimajor_km":6840.8316921424,"source":"CELESTRAK","updated_at":"2026-09-21T09:00:35.804591Z"}}}